Location: Marne
(34.0056°N, 117.9064°W)
Time: 22:00:01
(UTC+00:00)

YAOGAN 6 - Pass Details

Date: 18 January 2020
Orbit: 465 x 506 km, 97.0° (Epoch: 20 February)

Event Time Altitude Azimuth Distance (km) Brightness Sun altitude
Rises 01:46:33 0° 160° (SSE) 2,591 6.3 -8.4°
Reaches altitude 10° 01:48:39 10° 156° (SSE) 1,712 5.3 -8.8°
Maximum altitude 01:52:17 58° 77° (ENE) 592 2.7 -9.5°
Drops below altitude 10° 01:55:55 10° 358° (N) 1,718 5.2 -10.2°
Sets 01:58:02 0° 354° (N) 2,602 6.1 -10.7°
